Time,TemperatureF,DewpointF,PressureIn,WindDirection,WindDirectionDegrees,WindSpeedMPH,WindSpeedGustMPH,Humidity,HourlyPrecipIn,Conditions,Clouds,dailyrainin,SolarRadiationWatts/m^2,SoftwareType,DateUTC
2013-09-01 00:03:00,-999.0,-99.9,-100.00,SE,142,2.0,7.0,-999,-99.99,,,-99.99,0.000000,,2013-09-01 04:03:00,
2013-09-01 00:14:00,81.0,75.0,-100.00,SE,142,2.0,7.0,83,0.00,,,0.00,0.000000,,2013-09-01 04:14:00,
2013-09-01 00:25:00,81.0,75.0,-100.00,SE,142,2.0,7.0,83,0.00,,,0.00,0.000000,,2013-09-01 04:25:00,
2013-09-01 00:34:00,81.0,75.0,-100.00,SE,142,2.0,7.0,83,0.00,,,0.00,0.000000,,2013-09-01 04:34:00,
2013-09-01 01:13:00,81.0,75.0,-100.00,SSE,156,2.0,5.0,81,0.01,,,0.01,0.000000,,2013-09-01 05:13:00,
2013-09-01 01:23:00,81.0,75.0,-100.00,SSE,156,2.0,5.0,81,0.01,,,0.01,0.000000,,2013-09-01 05:23:00,
2013-09-01 01:34:00,81.0,75.0,-100.00,SSE,156,2.0,5.0,81,0.01,,,0.01,0.000000,,2013-09-01 05:34:00,
2013-09-01 02:13:00,77.0,74.0,-100.00,SSW,213,1.0,17.0,91,0.28,,,0.29,0.000000,,2013-09-01 06:13:00,
2013-09-01 02:22:00,77.0,74.0,-100.00,SSW,213,1.0,17.0,91,0.28,,,0.29,0.000000,,2013-09-01 06:22:00,
2013-09-01 02:32:00,77.0,74.0,-100.00,SSW,213,1.0,17.0,91,0.28,,,0.29,0.000000,,2013-09-01 06:32:00,
2013-09-01 03:13:00,78.0,75.0,-100.00,South,177,3.0,6.0,91,0.00,,,0.29,0.000000,,2013-09-01 07:13:00,
2013-09-01 03:22:00,78.0,75.0,-100.00,South,177,3.0,6.0,91,0.00,,,0.29,0.000000,,2013-09-01 07:22:00,
2013-09-01 03:32:00,78.0,75.0,-100.00,South,177,3.0,6.0,91,0.00,,,0.29,0.000000,,2013-09-01 07:32:00,
2013-09-01 04:11:00,77.0,74.0,-100.00,South,181,0.0,4.0,92,0.00,,,0.29,0.000000,,2013-09-01 08:11:00,
2013-09-01 04:22:00,77.0,74.0,-100.00,South,181,0.0,4.0,92,0.00,,,0.29,0.000000,,2013-09-01 08:22:00,
2013-09-01 04:32:00,77.0,74.0,-100.00,South,181,0.0,4.0,92,0.00,,,0.29,0.000000,,2013-09-01 08:32:00,
2013-09-01 05:11:00,77.0,75.0,-100.00,South,171,2.0,4.0,93,0.00,,,0.29,0.000000,,2013-09-01 09:11:00,
2013-09-01 05:22:00,77.0,75.0,-100.00,South,171,2.0,4.0,93,0.00,,,0.29,0.000000,,2013-09-01 09:22:00,
2013-09-01 05:33:00,77.0,75.0,-100.00,South,171,2.0,4.0,93,0.00,,,0.29,0.000000,,2013-09-01 09:33:00,
2013-09-01 06:13:00,76.0,74.0,-100.00,SE,127,0.0,3.0,93,0.00,,,0.29,0.000000,,2013-09-01 10:13:00,
2013-09-01 06:23:00,76.0,74.0,-100.00,SE,127,0.0,3.0,93,0.00,,,0.29,0.000000,,2013-09-01 10:23:00,
2013-09-01 06:33:00,76.0,74.0,-100.00,SE,127,0.0,3.0,93,0.00,,,0.29,0.000000,,2013-09-01 10:33:00,
2013-09-01 08:12:00,76.0,74.0,-100.00,SSE,155,0.0,3.0,94,-99.99,,,0.29,9.000000,,2013-09-01 12:12:00,
2013-09-01 08:22:00,76.0,74.0,-100.00,SSE,155,0.0,3.0,94,-99.99,,,0.29,9.000000,,2013-09-01 12:22:00,
2013-09-01 08:32:00,76.0,74.0,-100.00,SSE,155,0.0,3.0,94,-99.99,,,0.29,9.000000,,2013-09-01 12:32:00,
2013-09-01 09:11:00,83.0,78.0,-100.00,SSE,148,2.0,4.0,86,0.00,,,0.29,158.000000,,2013-09-01 13:11:00,
2013-09-01 09:21:00,83.0,78.0,-100.00,SSE,148,2.0,4.0,86,0.00,,,0.29,158.000000,,2013-09-01 13:21:00,
2013-09-01 09:32:00,83.0,78.0,-100.00,SSE,148,2.0,4.0,86,0.00,,,0.29,158.000000,,2013-09-01 13:32:00,
2013-09-01 10:11:00,88.0,77.0,-100.00,ESE,122,3.0,5.0,69,0.00,,,0.29,357.000000,,2013-09-01 14:11:00,
2013-09-01 10:22:00,88.0,77.0,-100.00,ESE,122,3.0,5.0,69,0.00,,,0.29,357.000000,,2013-09-01 14:22:00,
2013-09-01 10:32:00,88.0,77.0,-100.00,ESE,122,3.0,5.0,69,0.00,,,0.29,357.000000,,2013-09-01 14:32:00,
2013-09-01 11:11:00,88.0,74.0,-100.00,SSW,194,5.0,7.0,64,0.00,,,0.29,464.000000,,2013-09-01 15:11:00,
2013-09-01 11:23:00,88.0,74.0,-100.00,SSW,194,5.0,7.0,64,0.00,,,0.29,464.000000,,2013-09-01 15:23:00,
2013-09-01 11:34:00,88.0,74.0,-100.00,SSW,194,5.0,7.0,64,0.00,,,0.29,464.000000,,2013-09-01 15:34:00,
2013-09-01 12:14:00,89.0,75.0,-100.00,South,179,6.0,11.0,64,0.00,,,0.29,671.000000,,2013-09-01 16:14:00,
2013-09-01 12:24:00,89.0,75.0,-100.00,South,179,6.0,11.0,64,0.00,,,0.29,671.000000,,2013-09-01 16:24:00,
2013-09-01 12:34:00,89.0,75.0,-100.00,South,179,6.0,11.0,64,0.00,,,0.29,671.000000,,2013-09-01 16:34:00,
2013-09-01 13:12:00,90.0,74.0,-100.00,South,172,6.0,12.0,60,0.00,,,0.29,834.000000,,2013-09-01 17:12:00,
2013-09-01 13:23:00,90.0,74.0,-100.00,South,172,6.0,12.0,60,0.00,,,0.29,834.000000,,2013-09-01 17:23:00,
2013-09-01 13:34:00,90.0,74.0,-100.00,South,172,6.0,12.0,60,0.00,,,0.29,834.000000,,2013-09-01 17:34:00,
2013-09-01 14:13:00,91.0,75.0,-100.00,SSW,192,6.0,12.0,59,0.00,,,0.29,899.000000,,2013-09-01 18:13:00,
2013-09-01 14:22:00,91.0,75.0,-100.00,SSW,192,6.0,12.0,59,0.00,,,0.29,899.000000,,2013-09-01 18:22:00,
2013-09-01 14:32:00,91.0,75.0,-100.00,SSW,192,6.0,12.0,59,0.00,,,0.29,899.000000,,2013-09-01 18:32:00,
2013-09-01 15:12:00,90.0,74.0,-100.00,South,181,8.0,14.0,60,0.00,,,0.29,827.000000,,2013-09-01 19:12:00,
2013-09-01 15:22:00,90.0,74.0,-100.00,South,181,8.0,14.0,60,0.00,,,0.29,827.000000,,2013-09-01 19:22:00,
2013-09-01 15:32:00,90.0,74.0,-100.00,South,181,8.0,14.0,60,0.00,,,0.29,827.000000,,2013-09-01 19:32:00,
2013-09-01 16:12:00,90.0,75.0,-100.00,SSW,210,5.0,12.0,61,0.00,,,-99.99,818.000000,,2013-09-01 20:12:00,
2013-09-01 16:22:00,90.0,75.0,-100.00,SSW,210,5.0,12.0,61,0.00,,,-99.99,818.000000,,2013-09-01 20:22:00,
2013-09-01 16:32:00,90.0,75.0,-100.00,SSW,210,5.0,12.0,61,0.00,,,-99.99,818.000000,,2013-09-01 20:32:00,
2013-09-01 17:11:00,91.0,74.0,-100.00,WSW,238,4.0,10.0,58,0.00,,,-99.99,684.000000,,2013-09-01 21:11:00,
2013-09-01 17:22:00,91.0,74.0,-100.00,WSW,238,4.0,10.0,58,0.00,,,-99.99,684.000000,,2013-09-01 21:22:00,
2013-09-01 17:34:00,91.0,74.0,-100.00,WSW,238,4.0,10.0,58,0.00,,,-99.99,684.000000,,2013-09-01 21:34:00,
2013-09-01 18:15:00,90.0,74.0,-100.00,SSW,204,4.0,9.0,59,0.00,,,0.29,597.000000,,2013-09-01 22:15:00,
2013-09-01 18:24:00,90.0,74.0,-100.00,SSW,204,4.0,9.0,59,0.00,,,0.29,597.000000,,2013-09-01 22:24:00,
2013-09-01 18:34:00,90.0,74.0,-100.00,SSW,204,4.0,9.0,59,0.00,,,0.29,597.000000,,2013-09-01 22:34:00,
2013-09-01 19:12:00,89.0,75.0,-100.00,WNW,283,3.0,8.0,63,0.00,,,0.29,292.000000,,2013-09-01 23:12:00,
2013-09-01 19:23:00,89.0,75.0,-100.00,WNW,283,3.0,8.0,63,0.00,,,0.29,292.000000,,2013-09-01 23:23:00,
2013-09-01 19:34:00,89.0,75.0,-100.00,WNW,283,3.0,8.0,63,0.00,,,0.29,292.000000,,2013-09-01 23:34:00,
2013-09-01 20:11:00,84.0,74.0,-100.00,SE,136,3.0,7.0,71,0.00,,,0.29,84.000000,,2013-09-02 00:11:00,
2013-09-01 20:22:00,84.0,74.0,-100.00,SE,136,3.0,7.0,71,0.00,,,0.29,84.000000,,2013-09-02 00:22:00,
2013-09-01 20:33:00,84.0,74.0,-100.00,SE,136,3.0,7.0,71,0.00,,,0.29,84.000000,,2013-09-02 00:33:00,
2013-09-01 21:12:00,83.0,74.0,-100.00,SSE,163,3.0,6.0,75,0.00,,,0.29,2.000000,,2013-09-02 01:12:00,
2013-09-01 21:22:00,83.0,74.0,-100.00,SSE,163,3.0,6.0,75,0.00,,,0.29,2.000000,,2013-09-02 01:22:00,
2013-09-01 21:32:00,83.0,74.0,-100.00,SSE,163,3.0,6.0,75,0.00,,,0.29,2.000000,,2013-09-02 01:32:00,
2013-09-01 22:12:00,81.0,74.0,-100.00,SSE,168,3.0,5.0,80,0.00,,,0.29,0.000000,,2013-09-02 02:12:00,
2013-09-01 22:22:00,81.0,74.0,-100.00,SSE,168,3.0,5.0,80,0.00,,,0.29,0.000000,,2013-09-02 02:22:00,
2013-09-01 22:33:00,81.0,74.0,-100.00,SSE,168,3.0,5.0,80,0.00,,,0.29,0.000000,,2013-09-02 02:33:00,
2013-09-01 23:11:00,81.0,75.0,-100.00,SSE,161,2.0,5.0,82,0.00,,,0.29,0.000000,,2013-09-02 03:11:00,
2013-09-01 23:22:00,81.0,75.0,-100.00,SSE,161,2.0,5.0,82,0.00,,,0.29,0.000000,,2013-09-02 03:22:00,
2013-09-01 23:34:00,81.0,75.0,-100.00,SSE,161,2.0,5.0,82,0.00,,,0.29,0.000000,,2013-09-02 03:34:00,